| time (UTC) | temp C | wind direction | speed KPH | gust KPH | rain 1hr cm | rain 24hr cm | rain mn cm | humidity % | barometer mb |
| 20260506204637 | 18 | 137 | 0.0 | 3.2 | 0.00 | 0.00 | 0.00 | 82 | 1013.4 |
| 20260506204133 | 17 | 116 | 3.2 | 4.8 | 0.00 | 0.00 | 0.00 | 82 | 1013.5 |
| 20260506203631 | 18 | 44 | 0.0 | 3.2 | 0.00 | 0.00 | 0.00 | 81 | 1013.6 |
| 20260506203128 | 18 | 124 | 1.6 | 4.8 | 0.00 | 0.00 | 0.00 | 80 | 1013.5 |
| 20260506202626 | 19 | 142 | 3.2 | 4.8 | 0.00 | 0.00 | 0.00 | 79 | 1013.4 |
| 20260506202122 | 19 | 238 | 0.0 | 3.2 | 0.00 | 0.00 | 0.00 | 79 | 1013.3 |
| 20260506201619 | 20 | 178 | 1.6 | 3.2 | 0.00 | 0.00 | 0.00 | 80 | 1013.3 |
| 20260506201115 | 20 | 18 | 1.6 | 3.2 | 0.00 | 0.00 | 0.00 | 80 | 1013.1 |
| 20260506200612 | 19 | 86 | 11.3 | 22.5 | 0.00 | 0.00 | 0.00 | 80 | 1013.1 |
| 20260506200109 | 20 | 84 | 4.8 | 8.0 | 0.00 | 0.00 | 0.00 | 79 | 1013.2 |
| 20260506195605 | 20 | 357 | 3.2 | 3.2 | 0.00 | 0.00 | 0.00 | 78 | 1013.1 |
| 20260506195102 | 20 | 79 | 12.9 | 22.5 | 0.00 | 0.00 | 0.00 | 78 | 1012.9 |
| 20260506194600 | 21 | 141 | 6.4 | 11.3 | 0.00 | 0.00 | 0.00 | 78 | 1012.7 |
| 20260506194055 | 21 | 127 | 4.8 | 8.0 | 0.00 | 0.00 | 0.00 | 79 | 1012.9 |
| 20260506193553 | 20 | 136 | 0.0 | 0.0 | 0.00 | 0.00 | 0.00 | 81 | 1012.8 |
| 20260506193050 | 20 | 74 | 1.6 | 3.2 | 0.00 | 0.00 | 0.00 | 82 | 1012.8 |
| 20260506192547 | 20 | 329 | 1.6 | 4.8 | 0.00 | 0.00 | 0.00 | 81 | 1012.8 |
| 20260506192043 | 21 | 159 | 3.2 | 4.8 | 0.00 | 0.00 | 0.00 | 81 | 1013.1 |
| 20260506191540 | 21 | 303 | 3.2 | 4.8 | 0.00 | 0.00 | 0.00 | 80 | 1012.9 |
| 20260506191036 | 21 | 142 | 0.0 | 3.2 | 0.00 | 0.00 | 0.00 | 79 | 1012.9 |
| 20260506190533 | 21 | 141 | 0.0 | 0.0 | 0.00 | 0.00 | 0.00 | 80 | 1012.9 |
| 20260506190030 | 22 | 156 | 1.6 | 3.2 | 0.00 | 0.00 | 0.00 | 79 | 1013.1 |
| 20260506185527 | 23 | 95 | 3.2 | 3.2 | 0.00 | 0.00 | 0.00 | 78 | 1013.0 |
| 20260506185024 | 23 | 138 | 0.0 | 0.0 | 0.00 | 0.00 | 0.00 | 78 | 1013.0 |
| 20260506184521 | 24 | 130 | 0.0 | 0.0 | 0.00 | 0.00 | 0.00 | 78 | 1012.9 |
| 20260506184018 | 23 | 142 | 0.0 | 0.0 | 0.00 | 0.00 | 0.00 | 78 | 1012.7 |
| 20260506183514 | 24 | 83 | 0.0 | 0.0 | 0.00 | 0.00 | 0.00 | 76 | 1012.7 |
| 20260506183011 | 24 | 122 | 0.0 | 0.0 | 0.00 | 0.00 | 0.00 | 77 | 1012.6 |
| 20260506182509 | 24 | 115 | 0.0 | 3.2 | 0.00 | 0.00 | 0.00 | 78 | 1012.3 |
| 20260506182005 | 23 | 112 | 0.0 | 0.0 | 0.00 | 0.00 | 0.00 | 77 | 1012.5 |
| 20260506181503 | 23 | 131 | 3.2 | 4.8 | 0.00 | 0.00 | 0.00 | 76 | 1012.8 |
| 20260506180959 | 23 | 140 | 0.0 | 0.0 | 0.00 | 0.00 | 0.00 | 80 | 1013.0 |
| 20260506180455 | 22 | 143 | 0.0 | 0.0 | 0.00 | 0.00 | 0.00 | 82 | 1012.7 |
| 20260506175947 | 22 | 128 | 4.8 | 8.0 | 0.00 | 0.00 | 0.00 | 82 | 1012.7 |
| 20260506175444 | 21 | 90 | 3.2 | 4.8 | 0.00 | 0.00 | 0.00 | 82 | 1012.7 |
| 20260506174940 | 22 | 131 | 4.8 | 8.0 | 0.00 | 0.00 | 0.00 | 82 | 1012.3 |
| 20260506174438 | 21 | 109 | 0.0 | 3.2 | 0.00 | 0.00 | 0.00 | 83 | 1012.2 |
| 20260506173935 | 21 | 139 | 0.0 | 0.0 | 0.00 | 0.00 | 0.00 | 86 | 1012.4 |
| 20260506173432 | 21 | 130 | 1.6 | 3.2 | 0.00 | 0.00 | 0.00 | 84 | 1012.5 |
| 20260506172929 | 21 | 122 | 3.2 | 4.8 | 0.00 | 0.00 | 0.00 | 84 | 1012.3 |
| 20260506172426 | 20 | 52 | 3.2 | 4.8 | 0.00 | 0.00 | 0.00 | 87 | 1012.6 |
| 20260506171923 | 20 | 103 | 0.0 | 0.0 | 0.00 | 0.00 | 0.00 | 87 | 1012.5 |
| 20260506171420 | 20 | 36 | 4.8 | 8.0 | 0.00 | 0.00 | 0.00 | 88 | 1012.6 |
| 20260506170918 | 20 | 113 | 4.8 | 8.0 | 0.00 | 0.00 | 0.00 | 86 | 1012.4 |
| 20260506170413 | 19 | 167 | 6.4 | 11.3 | 0.00 | 0.00 | 0.00 | 88 | 1012.7 |
| 20260506165907 | 18 | 108 | 9.7 | 14.5 | 0.00 | 0.00 | 0.00 | 89 | 1012.6 |
| 20260506165405 | 18 | 34 | 6.4 | 16.1 | 0.00 | 0.00 | 0.00 | 88 | 1012.5 |
| 20260506164901 | 18 | 25 | 6.4 | 14.5 | 0.00 | 0.00 | 0.00 | 88 | 1012.5 |
| 20260506164357 | 18 | 95 | 4.8 | 8.0 | 0.00 | 0.00 | 0.00 | 88 | 1012.6 |
| 20260506163855 | 18 | 16 | 14.5 | 19.3 | 0.00 | 0.00 | 0.00 | 87 | 1013.1 |
| 20260506163349 | 18 | 96 | 11.3 | 16.1 | 0.00 | 0.00 | 0.00 | 90 | 1013.2 |
| 20260506162845 | 18 | 41 | 8.0 | 11.3 | 0.00 | 0.00 | 0.00 | 89 | 1013.5 |
| 20260506162343 | 17 | 120 | 8.0 | 8.0 | 0.00 | 0.00 | 0.00 | 91 | 1013.6 |
| 20260506161835 | 17 | 139 | 0.0 | 0.0 | 0.00 | 0.00 | 0.00 | 95 | 1013.7 |
| 20260506161332 | 16 | 11 | 14.5 | 19.3 | 0.00 | 0.00 | 0.00 | 96 | 1013.6 |
| 20260506160829 | 16 | 165 | 6.4 | 11.3 | 0.00 | 0.00 | 0.00 | 98 | 1014.3 |
| 20260506160325 | 16 | 111 | 12.9 | 16.1 | 0.00 | 0.00 | 0.00 | 97 | 1014.4 |
| 20260506155824 | 16 | 136 | 1.6 | 4.8 | 0.00 | 0.00 | 0.00 | 98 | 1014.6 |
| 20260506155320 | 16 | 138 | 1.6 | 4.8 | 0.00 | 0.00 | 0.00 | 97 | 1013.9 |
| 20260506153433 | 18 | 128 | 1.6 | 4.8 | 0.00 | 0.00 | 0.00 | 95 | 1013.9 |
| 20260506152931 | 18 | 119 | 0.0 | 0.0 | 0.00 | 0.00 | 0.00 | 94 | 1013.4 |
| 20260506152427 | 18 | 108 | 0.0 | 3.2 | 0.00 | 0.00 | 0.00 | 94 | 1013.5 |
| 20260506151926 | 19 | 99 | 3.2 | 4.8 | 0.00 | 0.00 | 0.00 | 93 | 1013.3 |
| 20260506151423 | 19 | 136 | 3.2 | 4.8 | 0.00 | 0.00 | 0.00 | 93 | 1013.1 |
| 20260506150921 | 19 | 135 | 3.2 | 4.8 | 0.00 | 0.00 | 0.00 | 93 | 1012.8 |
| 20260506150416 | 20 | 188 | 8.0 | 27.4 | 0.00 | 0.00 | 0.00 | 92 | 1013.0 |
| 20260506145914 | 20 | 183 | 8.0 | 8.0 | 0.00 | 0.00 | 0.00 | 92 | 1012.7 |
| 20260506145409 | 21 | 151 | 0.0 | 0.0 | 0.00 | 0.00 | 0.00 | 90 | 1012.4 |
| 20260506144907 | 23 | 97 | 4.8 | 11.3 | 0.00 | 0.00 | 0.00 | 87 | 1012.2 |
| 20260506144403 | 25 | 113 | 0.0 | 0.0 | 0.00 | 0.00 | 0.00 | 89 | 1011.7 |
| 20260506143902 | 25 | 55 | 0.0 | 3.2 | 0.00 | 0.00 | 0.00 | 89 | 1011.4 |
| 20260506143358 | 25 | 139 | 0.0 | 0.0 | 0.00 | 0.00 | 0.00 | 88 | 1011.1 |
| 20260506142857 | 26 | 140 | 0.0 | 3.2 | 0.00 | 0.00 | 0.00 | 87 | 1011.2 |
| 20260506142355 | 26 | 147 | 0.0 | 0.0 | 0.00 | 0.00 | 0.00 | 88 | 1010.9 |
| 20260506141853 | 27 | 110 | 0.0 | 0.0 | 0.00 | 0.00 | 0.00 | 86 | 1010.8 |
| 20260506141350 | 26 | 124 | 1.6 | 3.2 | 0.00 | 0.00 | 0.00 | 86 | 1010.7 |
| 20260506140848 | 26 | 41 | 1.6 | 4.8 | 0.00 | 0.00 | 0.00 | 88 | 1010.7 |
| 20260506140345 | 25 | 145 | 0.0 | 3.2 | 0.00 | 0.00 | 0.00 | 90 | 1010.7 |
| 20260506135842 | 25 | 248 | 3.2 | 4.8 | 0.00 | 0.00 | 0.00 | 92 | 1011.1 |
| 20260506135338 | 24 | 151 | 3.2 | 4.8 | 0.00 | 0.00 | 0.00 | 93 | 1011.0 |
| 20260506134835 | 24 | 141 | 3.2 | 3.2 | 0.00 | 0.00 | 0.00 | 94 | 1011.0 |
| 20260506134331 | 24 | 198 | 3.2 | 4.8 | 0.00 | 0.00 | 0.00 | 94 | 1010.5 |
| 20260506133829 | 23 | 139 | 1.6 | 3.2 | 0.00 | 0.00 | 0.00 | 94 | 1010.6 |
| 20260506133325 | 24 | 150 | 4.8 | 8.0 | 0.00 | 0.00 | 0.00 | 94 | 1010.6 |
| 20260506132822 | 23 | 181 | 1.6 | 3.2 | 0.00 | 0.00 | 0.00 | 95 | 1010.5 |
| 20260506132319 | 23 | 167 | 0.0 | 0.0 | 0.00 | 0.00 | 0.00 | 95 | 1010.5 |
| 20260506131817 | 23 | 149 | 0.0 | 3.2 | 0.00 | 0.00 | 0.00 | 95 | 1010.5 |
| 20260506131313 | 23 | 190 | 1.6 | 3.2 | 0.00 | 0.00 | 0.00 | 95 | 1010.5 |
| 20260506130810 | 23 | 155 | 1.6 | 3.2 | 0.00 | 0.00 | 0.00 | 95 | 1010.3 |
| 20260506130307 | 23 | 268 | 0.0 | 0.0 | 0.00 | 0.00 | 0.00 | 96 | 1010.3 |
| 20260506125805 | 23 | 146 | 0.0 | 0.0 | 0.00 | 0.00 | 0.00 | 96 | 1010.2 |
| 20260506125305 | 23 | 140 | 0.0 | 3.2 | 0.00 | 0.00 | 0.00 | 97 | 1010.2 |
| 20260506124801 | 23 | 143 | 0.0 | 0.0 | 0.00 | 0.00 | 0.00 | 97 | 1010.2 |
| 20260506124258 | 23 | 132 | 1.6 | 3.2 | 0.00 | 0.00 | 0.00 | 98 | 1009.9 |
| 20260506123755 | 23 | 142 | 0.0 | 0.0 | 0.00 | 0.00 | 0.00 | 98 | 1010.1 |
| 20260506123254 | 23 | 136 | 0.0 | 0.0 | 0.00 | 0.00 | 0.00 | 98 | 1009.9 |
| 20260506122750 | 23 | 139 | 0.0 | 3.2 | 0.00 | 0.00 | 0.00 | 98 | 1009.7 |
| 20260506122247 | 23 | 163 | 0.0 | 0.0 | 0.00 | 0.00 | 0.00 | 98 | 1009.9 |
| 20260506121746 | 23 | 137 | 0.0 | 0.0 | 0.00 | 0.00 | 0.00 | 98 | 1009.9 |
| 20260506121242 | 23 | 143 | 0.0 | 0.0 | 0.00 | 0.00 | 0.00 | 98 | 1010.1 |
| 20260506120739 | 23 | 150 | 0.0 | 3.2 | 0.00 | 0.00 | 0.00 | 98 | 1010.0 |
| 20260506120237 | 23 | 157 | 0.0 | 0.0 | 0.00 | 0.00 | 0.00 | 98 | 1010.1 |
| 20260506115734 | 23 | 138 | 0.0 | 0.0 | 0.00 | 0.00 | 0.00 | 98 | 1010.0 |
| 20260506115233 | 23 | 138 | 0.0 | 0.0 | 0.00 | 0.00 | 0.00 | 98 | 1010.0 |
| 20260506114730 | 23 | 140 | 0.0 | 0.0 | 0.00 | 0.00 | 0.00 | 98 | 1009.5 |
| 20260506114227 | 23 | 145 | 0.0 | 0.0 | 0.00 | 0.00 | 0.00 | 98 | 1010.0 |
| 20260506113726 | 23 | 144 | 0.0 | 0.0 | 0.00 | 0.00 | 0.00 | 97 | 1009.9 |
| 20260506113223 | 23 | 153 | 0.0 | 0.0 | 0.00 | 0.00 | 0.00 | 97 | 1009.8 |
| 20260506112719 | 23 | 143 | 0.0 | 0.0 | 0.00 | 0.00 | 0.00 | 97 | 1010.0 |
| 20260506112217 | 23 | 142 | 0.0 | 0.0 | 0.00 | 0.00 | 0.00 | 97 | 1010.0 |
| 20260506111714 | 23 | 146 | 0.0 | 0.0 | 0.00 | 0.00 | 0.00 | 97 | 1010.0 |
| 20260506111213 | 23 | 137 | 0.0 | 0.0 | 0.00 | 0.00 | 0.00 | 97 | 1010.0 |
| 20260506110709 | 23 | 149 | 0.0 | 0.0 | 0.00 | 0.00 | 0.00 | 97 | 1009.8 |
| 20260506110207 | 23 | 143 | 0.0 | 0.0 | 0.00 | 0.00 | 0.00 | 97 | 1010.0 |
| 20260506105703 | 23 | 143 | 0.0 | 0.0 | 0.00 | 0.00 | 0.00 | 97 | 1009.9 |
| 20260506105200 | 23 | 150 | 0.0 | 0.0 | 0.00 | 0.00 | 0.00 | 97 | 1009.9 |
| 20260506104658 | 23 | 153 | 0.0 | 0.0 | 0.00 | 0.00 | 0.00 | 96 | 1010.0 |
| 20260506104155 | 23 | 141 | 0.0 | 0.0 | 0.00 | 0.00 | 0.00 | 96 | 1009.9 |
| 20260506103652 | 23 | 152 | 0.0 | 0.0 | 0.00 | 0.00 | 0.00 | 96 | 1009.9 |
| 20260506103149 | 23 | 134 | 0.0 | 0.0 | 0.00 | 0.00 | 0.00 | 96 | 1009.8 |
| 20260506102647 | 23 | 154 | 0.0 | 0.0 | 0.00 | 0.00 | 0.00 | 96 | 1009.6 |
| 20260506102144 | 23 | 165 | 0.0 | 3.2 | 0.00 | 0.00 | 0.00 | 96 | 1009.9 |
| 20260506101641 | 23 | 140 | 3.2 | 4.8 | 0.00 | 0.00 | 0.00 | 96 | 1009.8 |
| 20260506101138 | 23 | 164 | 1.6 | 3.2 | 0.00 | 0.00 | 0.00 | 96 | 1009.7 |
| 20260506100637 | 23 | 175 | 1.6 | 4.8 | 0.00 | 0.00 | 0.00 | 96 | 1009.5 |
| 20260506100134 | 23 | 150 | 0.0 | 0.0 | 0.00 | 0.00 | 0.00 | 96 | 1009.5 |
| 20260506095633 | 23 | 131 | 0.0 | 0.0 | 0.00 | 0.00 | 0.00 | 96 | 1009.5 |
| 20260506095129 | 23 | 169 | 0.0 | 0.0 | 0.00 | 0.00 | 0.00 | 96 | 1009.4 |
| 20260506094626 | 23 | 129 | 0.0 | 0.0 | 0.00 | 0.00 | 0.00 | 96 | 1009.2 |
| 20260506094124 | 23 | 189 | 0.0 | 0.0 | 0.00 | 0.00 | 0.00 | 95 | 1009.3 |
| 20260506093622 | 23 | 197 | 4.8 | 8.0 | 0.00 | 0.00 | 0.00 | 95 | 1009.0 |
| 20260506093119 | 23 | 112 | 8.0 | 11.3 | 0.00 | 0.00 | 0.00 | 95 | 1009.0 |
| 20260506092617 | 23 | 142 | 0.0 | 0.0 | 0.00 | 0.00 | 0.00 | 95 | 1008.8 |
| 20260506092114 | 23 | 133 | 0.0 | 0.0 | 0.00 | 0.00 | 0.00 | 95 | 1008.9 |
| 20260506091612 | 23 | 145 | 0.0 | 0.0 | 0.00 | 0.00 | 0.00 | 95 | 1009.0 |
| 20260506091109 | 23 | 202 | 0.0 | 3.2 | 0.00 | 0.00 | 0.00 | 95 | 1008.8 |
| 20260506090607 | 23 | 148 | 4.8 | 8.0 | 0.00 | 0.00 | 0.00 | 95 | 1008.9 |
| 20260506085600 | 23 | 165 | 1.6 | 4.8 | 0.00 | 0.00 | 0.00 | 94 | 1008.4 |
| 20260506085056 | 23 | 171 | 0.0 | 0.0 | 0.00 | 0.00 | 0.00 | 94 | 1008.6 |
| 20260506084553 | 23 | 147 | 1.6 | 3.2 | 0.00 | 0.00 | 0.00 | 94 | 1008.7 |
| 20260506084050 | 23 | 113 | 1.6 | 3.2 | 0.00 | 0.00 | 0.00 | 94 | 1008.7 |
| 20260506083547 | 23 | 159 | 0.0 | 0.0 | 0.00 | 0.00 | 0.00 | 94 | 1008.8 |
| 20260506083044 | 23 | 177 | 8.0 | 11.3 | 0.00 | 0.00 | 0.00 | 94 | 1008.7 |
| 20260506082540 | 23 | 155 | 3.2 | 4.8 | 0.00 | 0.00 | 0.00 | 94 | 1008.4 |
| 20260506082036 | 23 | 144 | 0.0 | 0.0 | 0.00 | 0.00 | 0.00 | 94 | 1008.6 |
| 20260506081535 | 23 | 178 | 4.8 | 4.8 | 0.00 | 0.00 | 0.00 | 94 | 1008.7 |
| 20260506081032 | 23 | 140 | 4.8 | 8.0 | 0.00 | 0.00 | 0.00 | 94 | 1008.6 |
| 20260506080530 | 23 | 233 | 3.2 | 4.8 | 0.00 | 0.00 | 0.00 | 94 | 1008.6 |
| 20260506073513 | 23 | 174 | 3.2 | 4.8 | 0.00 | 0.00 | 0.00 | 94 | 1009.0 |
| 20260506073010 | 23 | 183 | 4.8 | 14.5 | 0.00 | 0.00 | 0.00 | 94 | 1009.0 |
| 20260506072507 | 23 | 177 | 4.8 | 8.0 | 0.00 | 0.00 | 0.00 | 94 | 1009.0 |
| 20260506072005 | 23 | 99 | 4.8 | 4.8 | 0.00 | 0.00 | 0.00 | 94 | 1009.2 |
| 20260506071503 | 23 | 34 | 4.8 | 4.8 | 0.00 | 0.00 | 0.00 | 95 | 1009.3 |
| 20260506070959 | 23 | 172 | 6.4 | 8.0 | 0.00 | 0.00 | 0.00 | 95 | 1009.3 |
| 20260506070456 | 23 | 200 | 8.0 | 11.3 | 0.00 | 0.00 | 0.00 | 94 | 1009.1 |
| 20260506062434 | 23 | 179 | 6.4 | 11.3 | 0.00 | 0.00 | 0.00 | 94 | 1009.0 |
| 20260506061930 | 23 | 175 | 6.4 | 8.0 | 0.00 | 0.00 | 0.00 | 94 | 1008.9 |
| 20260506061426 | 23 | 183 | 4.8 | 8.0 | 0.00 | 0.00 | 0.00 | 94 | 1009.0 |
| 20260506060925 | 23 | 144 | 8.0 | 11.3 | 0.00 | 0.00 | 0.00 | 94 | 1009.2 |
| 20260506060422 | 23 | 219 | 3.2 | 4.8 | 0.00 | 0.00 | 0.00 | 94 | 1009.2 |
| 20260506051354 | 24 | 198 | 4.8 | 8.0 | 0.00 | 0.00 | 0.00 | 94 | 1009.1 |
| 20260506050851 | 24 | 214 | 3.2 | 8.0 | 0.00 | 0.00 | 0.00 | 94 | 1009.1 |
| 20260506050349 | 24 | 170 | 3.2 | 4.8 | 0.00 | 0.00 | 0.00 | 93 | 1009.3 |
| 20260506044839 | 24 | 177 | 0.0 | 3.2 | 0.00 | 0.00 | 0.00 | 94 | 1009.4 |
| 20260506044337 | 24 | 182 | 8.0 | 11.3 | 0.00 | 0.00 | 0.00 | 94 | 1009.1 |
| 20260506043834 | 24 | 202 | 4.8 | 8.0 | 0.00 | 0.00 | 0.00 | 94 | 1009.0 |
| 20260506043331 | 24 | 170 | 4.8 | 8.0 | 0.00 | 0.00 | 0.00 | 93 | 1009.1 |
| 20260506042829 | 24 | 120 | 4.8 | 8.0 | 0.00 | 0.00 | 0.00 | 93 | 1009.0 |
| 20260506042328 | 24 | 169 | 1.6 | 3.2 | 0.00 | 0.00 | 0.00 | 92 | 1009.2 |
| 20260506041827 | 25 | 128 | 6.4 | 8.0 | 0.00 | 0.00 | 0.00 | 92 | 1009.1 |
| 20260506041323 | 24 | 159 | 8.0 | 11.3 | 0.00 | 0.00 | 0.00 | 92 | 1008.8 |
| 20260506040820 | 24 | 149 | 0.0 | 3.2 | 0.00 | 0.00 | 0.00 | 92 | 1008.9 |
| 20260506040318 | 24 | 193 | 3.2 | 4.8 | 0.00 | 0.00 | 0.00 | 92 | 1008.5 |
| 20260506035814 | 24 | 138 | 6.4 | 8.0 | 0.00 | 0.00 | 0.00 | 92 | 1008.9 |
| 20260506035311 | 25 | 139 | 0.0 | 0.0 | 0.00 | 0.00 | 0.00 | 91 | 1008.6 |
| 20260506034809 | 25 | 206 | 6.4 | 8.0 | 0.00 | 0.00 | 0.00 | 91 | 1008.4 |
| 20260506034306 | 25 | 143 | 4.8 | 4.8 | 0.00 | 0.00 | 0.00 | 90 | 1008.5 |
| 20260506033802 | 25 | 213 | 4.8 | 4.8 | 0.00 | 0.00 | 0.00 | 91 | 1008.6 |
| 20260506033259 | 25 | 152 | 6.4 | 11.3 | 0.00 | 0.00 | 0.00 | 91 | 1008.4 |
| 20260506032756 | 25 | 165 | 1.6 | 3.2 | 0.00 | 0.00 | 0.00 | 91 | 1008.5 |
| 20260506032253 | 25 | 146 | 0.0 | 0.0 | 0.00 | 0.00 | 0.00 | 90 | 1008.5 |
| 20260506031750 | 25 | 184 | 3.2 | 4.8 | 0.00 | 0.00 | 0.00 | 90 | 1008.1 |
| 20260506031247 | 25 | 184 | 1.6 | 3.2 | 0.00 | 0.00 | 0.00 | 89 | 1008.2 |
| 20260506030745 | 25 | 176 | 1.6 | 3.2 | 0.00 | 0.00 | 0.00 | 88 | 1008.5 |
| 20260506030243 | 25 | 173 | 4.8 | 8.0 | 0.00 | 0.00 | 0.00 | 87 | 1008.3 |
| 20260506025739 | 25 | 177 | 1.6 | 4.8 | 0.00 | 0.00 | 0.00 | 87 | 1008.4 |
| 20260506025236 | 25 | 40 | 4.8 | 4.8 | 0.00 | 0.00 | 0.00 | 87 | 1008.0 |
| 20260506024732 | 25 | 190 | 1.6 | 3.2 | 0.00 | 0.00 | 0.00 | 86 | 1008.1 |
| 20260506024229 | 25 | 138 | 0.0 | 3.2 | 0.00 | 0.00 | 0.00 | 86 | 1008.0 |
| 20260506023720 | 26 | 174 | 3.2 | 3.2 | 0.00 | 0.00 | 0.00 | 85 | 1007.8 |
| 20260506023217 | 26 | 186 | 1.6 | 3.2 | 0.00 | 0.00 | 0.00 | 85 | 1007.7 |
| 20260506022714 | 26 | 147 | 0.0 | 3.2 | 0.00 | 0.00 | 0.00 | 85 | 1007.6 |
| 20260506022212 | 25 | 184 | 1.6 | 3.2 | 0.00 | 0.00 | 0.00 | 86 | 1007.4 |
| 20260506021709 | 26 | 164 | 0.0 | 0.0 | 0.00 | 0.00 | 0.00 | 85 | 1007.5 |
| 20260506021206 | 26 | 166 | 0.0 | 0.0 | 0.00 | 0.00 | 0.00 | 85 | 1007.4 |
| 20260506020703 | 26 | 113 | 3.2 | 4.8 | 0.00 | 0.00 | 0.00 | 84 | 1007.4 |
| 20260506020201 | 26 | 161 | 0.0 | 0.0 | 0.00 | 0.00 | 0.00 | 84 | 1007.1 |
| 20260506015658 | 26 | 141 | 0.0 | 0.0 | 0.00 | 0.00 | 0.00 | 84 | 1007.2 |
| 20260506015155 | 26 | 162 | 0.0 | 0.0 | 0.00 | 0.00 | 0.00 | 84 | 1007.1 |
| 20260506014653 | 26 | 137 | 0.0 | 3.2 | 0.00 | 0.00 | 0.00 | 83 | 1006.9 |
| 20260506014148 | 26 | 221 | 1.6 | 4.8 | 0.00 | 0.00 | 0.00 | 83 | 1007.0 |
| 20260506013646 | 26 | 203 | 0.0 | 3.2 | 0.00 | 0.00 | 0.00 | 83 | 1006.8 |
| 20260506013143 | 26 | 162 | 0.0 | 3.2 | 0.00 | 0.00 | 0.00 | 82 | 1006.9 |
| 20260506012639 | 26 | 191 | 4.8 | 4.8 | 0.00 | 0.00 | 0.00 | 83 | 1007.0 |
| 20260506012136 | 26 | 148 | 0.0 | 0.0 | 0.00 | 0.00 | 0.00 | 82 | 1006.9 |
| 20260506011634 | 26 | 207 | 0.0 | 0.0 | 0.00 | 0.00 | 0.00 | 82 | 1007.0 |
| 20260506011130 | 27 | 140 | 0.0 | 0.0 | 0.00 | 0.00 | 0.00 | 81 | 1006.8 |
| 20260506010629 | 27 | 164 | 1.6 | 3.2 | 0.00 | 0.00 | 0.00 | 81 | 1006.8 |
| 20260506010125 | 27 | 136 | 0.0 | 0.0 | 0.00 | 0.00 | 0.00 | 80 | 1006.8 |
| 20260506005622 | 27 | 187 | 0.0 | 0.0 | 0.00 | 0.00 | 0.00 | 80 | 1006.9 |
| 20260506005118 | 27 | 174 | 0.0 | 3.2 | 0.00 | 0.00 | 0.00 | 79 | 1007.0 |
| 20260506004615 | 27 | 135 | 3.2 | 4.8 | 0.00 | 0.00 | 0.00 | 79 | 1006.8 |
| 20260506004112 | 27 | 109 | 1.6 | 4.8 | 0.00 | 0.00 | 0.00 | 78 | 1006.8 |
| 20260506003609 | 27 | 188 | 0.0 | 3.2 | 0.00 | 0.00 | 0.00 | 78 | 1006.9 |
| 20260506003105 | 27 | 230 | 4.8 | 8.0 | 0.00 | 0.00 | 0.00 | 78 | 1006.9 |
| 20260506002601 | 27 | 111 | 3.2 | 4.8 | 0.00 | 0.00 | 0.00 | 77 | 1007.0 |
| 20260506002057 | 27 | 140 | 0.0 | 3.2 | 0.00 | 0.00 | 0.00 | 77 | 1007.1 |
| 20260506001553 | 27 | 166 | 3.2 | 4.8 | 0.00 | 0.00 | 0.00 | 77 | 1007.1 |
| 20260506001050 | 27 | 139 | 0.0 | 0.0 | 0.00 | 0.00 | 0.00 | 77 | 1007.0 |
| 20260506000548 | 27 | 146 | 0.0 | 3.2 | 0.00 | 0.00 | 0.00 | 77 | 1007.0 |
| 20260506000045 | 27 | 191 | 0.0 | 3.2 | 0.00 | 0.00 | 0.00 | 76 | 1006.9 |
| 20260505235543 | 27 | 290 | 3.2 | 4.8 | 0.00 | 0.00 | 0.00 | 76 | 1006.8 |
| 20260505235040 | 27 | 119 | 8.0 | 8.0 | 0.00 | 0.00 | 0.00 | 76 | 1006.8 |
| 20260505234537 | 28 | 190 | 8.0 | 11.3 | 0.00 | 0.00 | 0.00 | 76 | 1006.5 |
| 20260505234033 | 28 | 224 | 8.0 | 11.3 | 0.00 | 0.00 | 0.00 | 75 | 1006.6 |
| 20260505233531 | 28 | 180 | 4.8 | 8.0 | 0.00 | 0.00 | 0.00 | 75 | 1006.8 |
| 20260505233028 | 28 | 157 | 1.6 | 3.2 | 0.00 | 0.00 | 0.00 | 74 | 1006.8 |
| 20260505232526 | 28 | 148 | 4.8 | 4.8 | 0.00 | 0.00 | 0.00 | 74 | 1006.4 |
| 20260505232023 | 28 | 200 | 8.0 | 11.3 | 0.00 | 0.00 | 0.00 | 74 | 1006.4 |
| 20260505231520 | 28 | 34 | 4.8 | 8.0 | 0.00 | 0.00 | 0.00 | 74 | 1006.2 |
| 20260505231019 | 28 | 173 | 3.2 | 4.8 | 0.00 | 0.00 | 0.00 | 74 | 1006.4 |
| 20260505230516 | 28 | 161 | 3.2 | 4.8 | 0.00 | 0.00 | 0.00 | 74 | 1006.4 |
| 20260505230012 | 28 | 141 | 8.0 | 14.5 | 0.00 | 0.00 | 0.00 | 73 | 1006.3 |
| 20260505225509 | 28 | 17 | 4.8 | 11.3 | 0.00 | 0.00 | 0.00 | 73 | 1006.2 |
| 20260505225005 | 28 | 229 | 9.7 | 11.3 | 0.00 | 0.00 | 0.00 | 73 | 1006.0 |
| 20260505224502 | 28 | 240 | 4.8 | 8.0 | 0.00 | 0.00 | 0.00 | 72 | 1006.2 |
| 20260505223959 | 28 | 185 | 3.2 | 3.2 | 0.00 | 0.00 | 0.00 | 72 | 1006.4 |
| 20260505223456 | 29 | 157 | 6.4 | 8.0 | 0.00 | 0.00 | 0.00 | 71 | 1006.3 |
| 20260505222953 | 28 | 300 | 4.8 | 4.8 | 0.00 | 0.00 | 0.00 | 72 | 1006.3 |
| 20260505222449 | 29 | 229 | 8.0 | 11.3 | 0.00 | 0.00 | 0.00 | 72 | 1006.3 |
| 20260505221944 | 29 | 230 | 4.8 | 8.0 | 0.00 | 0.00 | 0.00 | 71 | 1006.2 |
| 20260505221442 | 29 | 188 | 3.2 | 4.8 | 0.00 | 0.00 | 0.00 | 71 | 1006.2 |
| 20260505220939 | 29 | 231 | 4.8 | 8.0 | 0.00 | 0.00 | 0.00 | 71 | 1006.3 |
| 20260505220436 | 29 | 150 | 8.0 | 16.1 | 0.00 | 0.00 | 0.00 | 71 | 1006.3 |
| 20260505215934 | 29 | 160 | 3.2 | 4.8 | 0.00 | 0.00 | 0.00 | 70 | 1006.3 |
| 20260505215432 | 30 | 192 | 4.8 | 4.8 | 0.00 | 0.00 | 0.00 | 70 | 1006.6 |
| 20260505214929 | 30 | 169 | 1.6 | 3.2 | 0.00 | 0.00 | 0.00 | 71 | 1006.4 |
| 20260505214427 | 29 | 164 | 4.8 | 4.8 | 0.00 | 0.00 | 0.00 | 72 | 1006.4 |
| 20260505213924 | 30 | 125 | 4.8 | 11.3 | 0.00 | 0.00 | 0.00 | 71 | 1006.8 |
| 20260505213422 | 30 | 285 | 3.2 | 8.0 | 0.00 | 0.00 | 0.00 | 71 | 1007.0 |
| 20260505212917 | 30 | 179 | 3.2 | 4.8 | 0.00 | 0.00 | 0.00 | 70 | 1007.0 |
| 20260505212415 | 30 | 167 | 6.4 | 8.0 | 0.00 | 0.00 | 0.00 | 70 | 1006.8 |
| 20260505211911 | 30 | 205 | 3.2 | 8.0 | 0.00 | 0.00 | 0.00 | 71 | 1006.9 |
| 20260505211409 | 30 | 192 | 1.6 | 4.8 | 0.00 | 0.00 | 0.00 | 71 | 1007.1 |
| 20260505210905 | 30 | 175 | 4.8 | 14.5 | 0.00 | 0.00 | 0.00 | 72 | 1007.1 |
| 20260505210402 | 30 | 216 | 6.4 | 8.0 | 0.00 | 0.00 | 0.00 | 71 | 1007.1 |
| 20260505205859 | 29 | 153 | 3.2 | 4.8 | 0.00 | 0.00 | 0.00 | 71 | 1007.0 |
| 20260505205357 | 29 | 113 | 8.0 | 8.0 | 0.00 | 0.00 | 0.00 | 72 | 1007.2 |